TimeEST,TemperatureF,Dew PointF,Humidity,Sea Level PressureIn,VisibilityMPH,Wind Direction,Wind SpeedMPH,Gust SpeedMPH,PrecipitationIn,Events,Conditions,WindDirDegrees,DateUTC
12:54 AM,19.9,12.0,71,29.95,9.0,NNW,5.8,-,0.00,Snow,Light Snow,330,2013-02-05 05:54:00
1:54 AM,19.0,12.9,77,29.95,6.0,NNW,4.6,-,0.00,Snow,Light Snow,340,2013-02-05 06:54:00
2:19 AM,19.4,14.0,80,29.92,2.5,NNW,3.5,-,0.00,Snow,Light Snow,330,2013-02-05 07:19:00
2:44 AM,19.4,15.8,86,29.92,2.5,North,4.6,-,0.00,Snow,Light Snow,360,2013-02-05 07:44:00
2:54 AM,19.0,15.1,85,29.95,2.0,North,5.8,-,0.00,Snow,Light Snow,10,2013-02-05 07:54:00
3:21 AM,19.4,14.0,80,29.92,2.5,ENE,10.4,-,0.00,Snow,Light Snow,70,2013-02-05 08:21:00
3:54 AM,18.0,14.0,84,29.96,4.0,ENE,8.1,-,0.00,Snow,Light Snow,70,2013-02-05 08:54:00
4:54 AM,18.0,12.9,81,29.95,3.0,East,8.1,-,0.00,Snow,Light Snow,80,2013-02-05 09:54:00
5:54 AM,17.1,12.0,81,29.97,8.0,East,6.9,-,0.00,Snow,Light Snow,100,2013-02-05 10:54:00
6:54 AM,17.1,12.0,81,29.97,9.0,ESE,5.8,-,0.00,Snow,Light Snow,110,2013-02-05 11:54:00
7:54 AM,17.1,10.9,77,29.98,9.0,ESE,4.6,-,0.00,Snow,Light Snow,120,2013-02-05 12:54:00
8:54 AM,17.1,10.9,77,29.98,9.0,ESE,8.1,-,0.00,Snow,Light Snow,120,2013-02-05 13:54:00
9:54 AM,19.0,10.9,71,29.98,10.0,ESE,8.1,-,0.00,,Mostly Cloudy,120,2013-02-05 14:54:00
10:54 AM,19.9,12.0,71,29.97,10.0,SSE,6.9,-,N/A,,Mostly Cloudy,150,2013-02-05 15:54:00
11:54 AM,23.0,12.0,63,29.94,10.0,Variable,4.6,-,N/A,,Overcast,0,2013-02-05 16:54:00
12:54 PM,24.1,12.9,62,29.91,10.0,Calm,Calm,-,N/A,,Overcast,0,2013-02-05 17:54:00
1:54 PM,26.1,14.0,60,29.90,10.0,Variable,6.9,-,N/A,,Overcast,0,2013-02-05 18:54:00
2:54 PM,27.0,14.0,58,29.87,10.0,South,4.6,-,N/A,,Overcast,180,2013-02-05 19:54:00
3:54 PM,27.0,15.1,61,29.86,10.0,SW,5.8,-,N/A,,Overcast,220,2013-02-05 20:54:00
4:54 PM,27.0,15.1,61,29.86,10.0,SW,4.6,-,N/A,,Overcast,230,2013-02-05 21:54:00
5:54 PM,27.0,15.1,61,29.86,10.0,Calm,Calm,-,N/A,,Mostly Cloudy,0,2013-02-05 22:54:00
6:54 PM,27.0,16.0,63,29.88,10.0,Calm,Calm,-,N/A,,Overcast,0,2013-02-05 23:54:00
7:54 PM,26.1,15.1,63,29.89,10.0,Calm,Calm,-,N/A,,Mostly Cloudy,0,2013-02-06 00:54:00
8:54 PM,26.1,15.1,63,29.89,10.0,WSW,3.5,-,N/A,,Mostly Cloudy,250,2013-02-06 01:54:00
9:54 PM,26.1,15.1,63,29.89,10.0,Calm,Calm,-,N/A,,Overcast,0,2013-02-06 02:54:00
10:54 PM,25.0,16.0,69,29.88,10.0,SSW,4.6,-,N/A,,Mostly Cloudy,210,2013-02-06 03:54:00
11:54 PM,27.0,19.0,72,29.88,10.0,SW,10.4,-,N/A,,Overcast,230,2013-02-06 04:54:00